When you browse on this site, cookies collect data to enhance your experience and personalize the content and advertising you see.
Visit our Privacy Policy to learn more. By continuing to use the site, you agree to this use of cookies and data.
  • In Hungary
  • List of Countries
  • For 7 days
  • Water Temperature
  • Satellite Maps
  • Weather Map
  • News
  • Weather Widgets
  • user-avatar
    Login

    Hourly Weather Czarkowice

    Today, 17 November, Saturday

    Time Temperature Precipitation Wind Pressure Humidity
    00:00 0°C° 0 mm 3 mps 755 mmHg 89%
    01:00 0°C° 0 mm 3 mps 756 mmHg 90%
    02:00 0°C° 0 mm 3 mps 756 mmHg 89%
    03:00 -1°C° 0 mm 3 mps 756 mmHg 88%
    04:00 -1°C° 0 mm 3 mps 755 mmHg 88%
    05:00 -1°C° 0 mm 3 mps 755 mmHg 86%
    06:00 -2°C° 0 mm 3 mps 755 mmHg 84%
    07:00 -2°C° 0 mm 2 mps 756 mmHg 83%
    08:00 -1°C° 0 mm 3 mps 756 mmHg 74%
    09:00 0°C° 0 mm 3 mps 756 mmHg 66%
    10:00 0°C° 0 mm 4 mps 756 mmHg 57%
    11:00 +1°C° 0 mm 4 mps 756 mmHg 53%
    12:00 +3°C° 0 mm 4 mps 755 mmHg 48%
    13:00 +3°C° 0 mm 5 mps 755 mmHg 44%
    14:00 +3°C° 0 mm 4 mps 755 mmHg 45%
    15:00 +1°C° 0 mm 4 mps 755 mmHg 47%
    16:00 +1°C° 0 mm 3 mps 754 mmHg 49%
    17:00 0°C° 0 mm 3 mps 754 mmHg 51%
    18:00 0°C° 0 mm 3 mps 754 mmHg 52%
    19:00 -1°C° 0 mm 3 mps 754 mmHg 54%
    20:00 -1°C° 0 mm 2 mps 754 mmHg 55%
    21:00 -1°C° 0 mm 2 mps 754 mmHg 56%
    22:00 -2°C° 0 mm 2 mps 754 mmHg 58%
    23:00 -2°C° 0 mm 2 mps 754 mmHg 59%

    Tomorrow, 18 November, Sunday

    Time Temperature Precipitation Wind Pressure Humidity
    00:00 -2°C° 0 mm 2 mps 754 mmHg 60%
    01:00 -2°C° 0 mm 2 mps 753 mmHg 62%
    02:00 -2°C° 0 mm 2 mps 753 mmHg 63%
    03:00 -2°C° 0 mm 2 mps 752 mmHg 64%
    04:00 0°C° 0 mm 1 mps 752 mmHg 65%
    05:00 -2°C° 0 mm 2 mps 752 mmHg 65%
    06:00 -3°C° 0 mm 2 mps 751 mmHg 66%
    07:00 -3°C° 0 mm 2 mps 751 mmHg 67%
    08:00 -2°C° 0 mm 2 mps 751 mmHg 63%
    09:00 +1°C° 0 mm 2 mps 751 mmHg 59%
    10:00 +2°C° 0 mm 2 mps 751 mmHg 55%
    11:00 +2°C° 0 mm 2 mps 750 mmHg 52%
    12:00 +2°C° 0 mm 3 mps 749 mmHg 50%
    13:00 +2°C° 0 mm 3 mps 749 mmHg 47%
    14:00 +2°C° 0 mm 3 mps 748 mmHg 48%
    15:00 +1°C° 0 mm 3 mps 747 mmHg 49%
    16:00 +1°C° 0 mm 2 mps 747 mmHg 50%
    17:00 +1°C° 0 mm 2 mps 747 mmHg 54%
    18:00 +1°C° 0 mm 2 mps 746 mmHg 59%
    19:00 -1°C° 0 mm 2 mps 746 mmHg 63%
    20:00 -1°C° 0 mm 2 mps 746 mmHg 69%
    21:00 -1°C° 0 mm 2 mps 746 mmHg 75%
    22:00 -1°C° 0 mm 2 mps 746 mmHg 80%
    23:00 -1°C° 0 mm 2 mps 745 mmHg 83%

    Day after tomorrow, 19 November, Monday

    Time Temperature Precipitation Wind Pressure Humidity
    00:00 -1°C° 0 mm 2 mps 745 mmHg 85%
    01:00 -1°C° 0 mm 3 mps 745 mmHg 88%
    02:00 -1°C° 0.1 mm 3 mps 745 mmHg 88%
    03:00 0°C° 0.1 mm 3 mps 744 mmHg 88%
    04:00 0°C° 0.1 mm 3 mps 744 mmHg 89%
    05:00 0°C° 0.1 mm 3 mps 744 mmHg 88%
    06:00 0°C° 0.1 mm 3 mps 744 mmHg 88%
    07:00 0°C° 0.1 mm 3 mps 744 mmHg 88%
    08:00 -1°C° 0.1 mm 4 mps 744 mmHg 85%
    09:00 -1°C° 0.1 mm 4 mps 744 mmHg 81%
    10:00 0°C° 0.1 mm 4 mps 744 mmHg 78%
    11:00 0°C° 0 mm 4 mps 744 mmHg 75%
    12:00 0°C° 0 mm 5 mps 744 mmHg 71%
    13:00 +1°C° 0 mm 5 mps 743 mmHg 68%
    14:00 0°C° 0 mm 4 mps 743 mmHg 70%
    15:00 0°C° 0 mm 4 mps 743 mmHg 73%
    16:00 -1°C° 0 mm 4 mps 743 mmHg 75%
    17:00 -1°C° 0 mm 4 mps 743 mmHg 76%
    18:00 -2°C° 0 mm 4 mps 743 mmHg 77%
    19:00 -2°C° 0 mm 4 mps 743 mmHg 78%
    20:00 -1°C° 0 mm 3 mps 743 mmHg 78%
    21:00 -1°C° 0 mm 3 mps 743 mmHg 78%
    22:00 -2°C° 0 mm 3 mps 744 mmHg 79%
    23:00 -2°C° 0 mm 3 mps 743 mmHg 78%

    20 November, Tuesday

    Time Temperature Precipitation Wind Pressure Humidity
    00:00 -2°C° 0 mm 3 mps 743 mmHg 78%
    01:00 -2°C° 0 mm 3 mps 743 mmHg 77%
    02:00 -4°C° 0 mm 3 mps 743 mmHg 77%
    03:00 -4°C° 0 mm 3 mps 743 mmHg 78%
    04:00 -4°C° 0 mm 3 mps 742 mmHg 78%
    05:00 -4°C° 0 mm 3 mps 742 mmHg 80%
    06:00 -3°C° 0 mm 2 mps 742 mmHg 81%
    07:00 -3°C° 0 mm 2 mps 742 mmHg 83%
    08:00 -2°C° 0 mm 3 mps 742 mmHg 80%
    09:00 -1°C° 0 mm 3 mps 742 mmHg 78%
    10:00 -1°C° 0 mm 4 mps 742 mmHg 75%
    11:00 0°C° 0 mm 4 mps 741 mmHg 73%
    12:00 0°C° 0 mm 5 mps 740 mmHg 71%
    13:00 +1°C° 0 mm 5 mps 739 mmHg 69%
    14:00 +1°C° 0.1 mm 5 mps 739 mmHg 70%
    15:00 0°C° 0.1 mm 5 mps 739 mmHg 71%
    16:00 0°C° 0.1 mm 4 mps 738 mmHg 73%
    17:00 0°C° 0.3 mm 4 mps 738 mmHg 75%
    18:00 0°C° 0.3 mm 5 mps 738 mmHg 78%
    19:00 0°C° 0.3 mm 5 mps 737 mmHg 81%
    20:00 0°C° 0.4 mm 4 mps 737 mmHg 83%
    21:00 0°C° 0.4 mm 4 mps 736 mmHg 85%
    22:00 0°C° 0.4 mm 4 mps 736 mmHg 87%
    23:00 0°C° 0.4 mm 4 mps 736 mmHg 88%

    21 November, Wednesday

    Time Temperature Precipitation Wind Pressure Humidity
    00:00 0°C° 0.4 mm 4 mps 736 mmHg 88%
    01:00 0°C° 0.4 mm 4 mps 736 mmHg 89%
    02:00 0°C° 0.8 mm 4 mps 735 mmHg 89%
    03:00 0°C° 0.8 mm 4 mps 735 mmHg 90%
    04:00 +1°C° 0.8 mm 3 mps 735 mmHg 90%
    05:00 +1°C° 0.6 mm 3 mps 735 mmHg 91%
    06:00 +1°C° 0.6 mm 3 mps 736 mmHg 92%
    07:00 +1°C° 0.6 mm 3 mps 736 mmHg 93%
    08:00 +1°C° 0.2 mm 3 mps 736 mmHg 92%
    09:00 +2°C° 0.2 mm 3 mps 737 mmHg 92%
    10:00 +2°C° 0.2 mm 3 mps 737 mmHg 92%
    11:00 +2°C° 0 mm 3 mps 738 mmHg 91%
    12:00 +4°C° 0 mm 2 mps 738 mmHg 90%
    13:00 +4°C° 0 mm 2 mps 738 mmHg 89%
    14:00 +4°C° 0 mm 2 mps 739 mmHg 90%
    15:00 +3°C° 0 mm 2 mps 739 mmHg 91%
    16:00 +3°C° 0 mm 2 mps 739 mmHg 92%
    17:00 +4°C° 0 mm 1 mps 740 mmHg 92%
    18:00 +4°C° 0 mm 1 mps 740 mmHg 93%
    19:00 +4°C° 0 mm 1 mps 741 mmHg 93%
    20:00 +4°C° 0 mm 1 mps 741 mmHg 93%
    21:00 +4°C° 0 mm 1 mps 741 mmHg 93%
    22:00 +4°C° 0 mm 1 mps 742 mmHg 93%
    23:00 +4°C° 0 mm 1 mps 742 mmHg 94%

    22 November, Thursday

    Time Temperature Precipitation Wind Pressure Humidity
    00:00 +3°C° 0 mm 1 mps 742 mmHg 94%
    01:00 +3°C° 0 mm 1 mps 742 mmHg 94%
    02:00 +3°C° 0 mm 1 mps 743 mmHg 94%
    03:00 +3°C° 0 mm 1 mps 743 mmHg 94%
    04:00 +3°C° 0 mm 1 mps 743 mmHg 94%
    05:00 +3°C° 0 mm 1 mps 743 mmHg 94%
    06:00 +3°C° 0 mm 1 mps 743 mmHg 94%
    07:00 +3°C° 0 mm 1 mps 744 mmHg 93%
    08:00 +4°C° 0 mm 1 mps 744 mmHg 92%
    09:00 +4°C° 0 mm 1 mps 744 mmHg 91%
    10:00 +5°C° 0 mm 1 mps 745 mmHg 90%
    11:00 +5°C° 0 mm 1 mps 745 mmHg 90%
    12:00 +5°C° 0 mm 2 mps 745 mmHg 89%
    13:00 +5°C° 0 mm 2 mps 745 mmHg 88%
    14:00 +5°C° 0 mm 2 mps 745 mmHg 90%
    15:00 +4°C° 0 mm 2 mps 745 mmHg 91%
    16:00 +4°C° 0 mm 2 mps 745 mmHg 92%
    17:00 +4°C° 0 mm 2 mps 745 mmHg 92%
    18:00 +4°C° 0 mm 2 mps 745 mmHg 93%
    19:00 +4°C° 0 mm 2 mps 745 mmHg 93%
    20:00 +4°C° 0 mm 2 mps 745 mmHg 93%
    21:00 +5°C° 0 mm 1 mps 746 mmHg 93%
    22:00 +5°C° 0 mm 1 mps 746 mmHg 93%
    23:00 +5°C° 0.1 mm 1 mps 746 mmHg 93%
    Show more